{"data":{"norad_id":62082,"intl_designator":"2024-219B","name":"KINEIS-5D","alt_names":[],"object_type":"PAYLOAD","status":"ACTIVE","operator":null,"country":"FR","launch_date":"2024-11-25","launch_site_code":"RLLB","launch_vehicle":null,"mission":null,"orbit_class":"UNKNOWN","rcs_meters":null,"size_class":null,"mass_kg":null,"dimensions":null,"purposes":[],"wikipedia_slug":null,"has_3d_model":false,"image_url":null,"decayed_at":null,"tle_current":{"epoch":"2026-05-25T04:31:11.015616Z","epoch_age_seconds":58160,"freshness":"FRESH","line1":"1 62082U 24219B   26145.18832194  .00000792  00000+0  13275-3 0  9998","line2":"2 62082  97.9131 304.6688 0004705   4.4547 355.6702 14.72397387 80372","mean_motion":14.72397387,"eccentricity":0.0004705,"inclination_deg":97.9131,"raan_deg":304.6688,"arg_perigee_deg":4.4547,"mean_anomaly_deg":355.6702,"bstar":0.00013275,"rev_number":8037,"period_min":97.79968456301,"perigee_km":650.11673904477,"apogee_km":656.73343897052,"semimajor_km":7031.5620890076,"source":"CELESTRAK","updated_at":"2026-05-25T13:38:02.757226Z"}}}